This is the latest recevied weather packets stored in our database for station/object IZ8QAD-4. If no packets are shown the sender has not sent any weather packets the latest 10 day(s).
| Time | Temp. | Humidity | Pressure | Rain* | Wind** | Luminosity | Snow |
|---|---|---|---|---|---|---|---|
| 1788356368 | 32.78° C | 36% | 970.3 hPa | - | - | - | - |
| 1788354567 | 32.78° C | 35% | 970.5 hPa | - | - | - | - |
| 1788352767 | 32.78° C | 35% | 970.8 hPa | - | - | - | - |
| 1788350967 | 32.78° C | 35% | 971 hPa | - | - | - | - |
| 1788349167 | 32.78° C | 34% | 971 hPa | - | - | - | - |
| 1788347366 | 32.78° C | 34% | 971.1 hPa | - | - | - | - |
| 1788345566 | 33.33° C | 37% | 971.1 hPa | - | - | - | - |
| 1788343769 | 32.78° C | 35% | 971.5 hPa | - | - | - | - |
| 1788341969 | 32.78° C | 33% | 971.7 hPa | - | - | - | - |
| 1788341340 | 32.78° C | 33% | 971.1 hPa | - | - | - | - |
| 1788340169 | 32.78° C | 32% | 971.7 hPa | - | - | - | - |
| 1788338369 | 32.78° C | 31% | 971.6 hPa | - | - | - | - |
| 1788336568 | 32.78° C | 32% | 971.4 hPa | - | - | - | - |
| 1788334768 | 32.78° C | 31% | 971.5 hPa | - | - | - | - |
| 1788332968 | 32.78° C | 31% | 971.4 hPa | - | - | - | - |
| 1788331168 | 32.78° C | 30% | 971.6 hPa | - | - | - | - |
| 1788329367 | 32.22° C | 30% | 971.5 hPa | - | - | - | - |
| 1788327567 | 32.22° C | 29% | 971.3 hPa | - | - | - | - |
| 1788325766 | 32.78° C | 30% | 971.2 hPa | - | - | - | - |
| 1788323966 | 32.78° C | 33% | 971.1 hPa | - | - | - | - |
| 1788322167 | 32.78° C | 34% | 971 hPa | - | - | - | - |
| 1788320367 | 33.33° C | 33% | 970.9 hPa | - | - | - | - |
| 1788319856 | 33.33° C | 35% | 971.2 hPa | - | - | - | - |
| 1788319844 | 33.33° C | 35% | 971.1 hPa | - | - | - | - |
| 1788319836 | 33.89° C | 35% | 971.2 hPa | - | - | - | - |
* Rain since midnight (hover to see other rain measurements)
** Current wind speed in m/s (hover to see current wind gust speed)